World > North America > United States > New York

Sidney, New York Regional Weather

Lat: 42.31N, Lon: 75.4W
Wx Zone: NYZ057Web Search
Sidney Weather Warning NWS WEATHER ALERT FOR THE SIDNEY, NY AREA - Issued: 118 PM EDT Mon Jun 21 2021 Sidney Weather Warning  

Helpful Tip: Abbreviated, 7 Day, 14 Day Forecasts. There is a weather forecast for every taste.

Feedback


°F Click to change Sidney hourly weather to Imperial units.Click to change Sidney hourly weather to Metric units. °C
Sidney Weather Map
UTC Time: 6/21/2021, 19:05
Your Time:

Sidney, NY Regional Weather

Expires:202106211900;;630716
ASUS41 KBGM 211810
RWRBGM

REGIONAL WEATHER ROUNDUP
NATIONAL WEATHER SERVICE BINGHAMTON NY
200 PM EDT MON JUN 21 2021

Note: "fair" indicates few or no clouds below 12,000 feet with no
significant weather and/or obstructions to visibility.

* = Station(s) that does not report precipitation, such as rain, 
snow, etc, also no thunder or fog.


NYZ009-015>018-022>025-036-037-044>046-055>057-062-211900
...Central New York...
  
CITY           SKY/WX    TMP DP  RH WIND       PRES   REMARKS
Binghamton     MOSUNNY   82  67  60 SW15G24   29.63F                  
Cortland       PTSUNNY   82  68  61 SW12G18   29.58F HX  85           
Dansville      PTSUNNY   87  63  44 S15G24    29.53F HX  88           
Elmira         MOSUNNY   90  68  48 SW14      29.55F HX  94           
Ithaca         MOSUNNY   88  70  55 S16       29.58F HX  93           
Hamilton       FAIR      84  64  51 S7G18     29.58S HX  86           
Monticello     MOSUNNY   84  70  62 S13G21    29.70F HX  88           
Penn Yan       MOSUNNY   87  65  47 SW17G31   29.55F HX  89           
Rome           PTSUNNY   88  68  51 S14G22    29.51F HX  91           
Skaneateles    FAIR      84  66  54 SW12G25   29.55F HX  86           
Syracuse       PTSUNNY   90  66  45 SW16G31   29.50F HX  92           
$$
 

SKY/WX - Weather  TMP - Temperature  DP - Dew Point  RH - Relative Humidity
WIND - Wind Direction/Speed PRES - Barometric Pressure VSB - Visibility
WCI - Wind Chill Index E13G22 Wind - East Wind 13 mph/Gusts of 22 mph